Inquirer Daily News

Weather

Get conditions and forecasts for any City, State, ZIP code or Country:  
Trenton, NJ
on Monday, January 14, 2013

Monday
Previous Day Next Day
Daily Summary
 ActualAverageRecord
Temperature
Mean Temperature °F 31°F  
Max Temperature 56°F 39°F 73°F (1932)
Min Temperature 39°F 23°F -7°F (1912)
Degree Days
Heating Degree Days 17 34  
Month to date heating degree days 376 475  
Since 1 July heating degree days 2134 2370  
Cooling Degree Days 0 0  
Month to date cooling degree days 0 0  
Year to date cooling degree days 0 0  
Moisture
Dew Point 45°F   
Average Humidity 77    
Maximum Humidity 100    
Minimum Humidity 54    
Precipitation
Precipitation 0.11 in 0.09 in 1.74 in (1968)
Month to date precipitation 0.76 1.52  
Year to date precipitation 0.76 1.52  
Wind
Wind Speed 5 mph   
Max Wind Speed 13 mph   
Max Gust Speed 17 mph   
Visibility 6 miles   
Events Fog , Rain   

Key: T is trace of precipitation, MM is missing value
Source: NWS Daily Summary
Time(EST)TemperatureDew PointHumidity Pressure Visibility Wind DirectionWind SpeedGust SpeedPrecipitationEvents Conditions
12:53 AM 48.9°F 48.0°F 97% 29.99 in 0.2 miles Calm Calm - N/A Fog Fog
1:53 AM 48.9°F 48.9°F 100% 29.99 in 0.2 miles Calm Calm - N/A Fog Fog
2:53 AM 48.9°F 48.0°F 97% 29.98 in 0.2 miles Calm Calm - 0.01 in Fog Fog
3:53 AM 50.0°F 48.9°F 96% 29.98 in 0.2 miles Calm Calm - N/A Fog Fog
4:53 AM 48.9°F 48.0°F 97% 29.96 in 0.2 miles Calm Calm - N/A Fog Fog
5:53 AM 51.1°F 50.0°F 96% 29.92 in 0.2 miles South 5.8 mph - 0.01 in Fog Fog
6:53 AM 50.0°F 50.0°F 100% 29.99 in 0.2 miles North 4.6 mph - N/A Fog Fog
7:53 AM 50.0°F 50.0°F 100% 30.02 in 0.2 miles NNW 4.6 mph - N/A Fog Fog
8:53 AM 50.0°F 48.9°F 96% 30.05 in 0.5 miles NNW 5.8 mph - N/A Fog Fog
9:05 AM 50.0°F 48.2°F 94% 30.08 in 2.0 miles NW 5.8 mph - N/A   Overcast
9:14 AM 50.0°F 48.2°F 94% 30.08 in 4.0 miles NNW 5.8 mph - N/A   Overcast
9:30 AM 50.0°F 48.2°F 94% 30.08 in 4.0 miles West 4.6 mph - N/A   Mostly Cloudy
9:48 AM 51.8°F 50.0°F 94% 30.09 in 4.0 miles NW 4.6 mph - N/A   Mostly Cloudy
9:53 AM 51.1°F 50.0°F 96% 30.08 in 4.0 miles NW 4.6 mph - N/A   Overcast
10:53 AM 54.0°F 51.1°F 90% 30.07 in 9.0 miles North 5.8 mph - N/A   Overcast
11:53 AM 55.0°F 51.1°F 86% 30.08 in 10.0 miles NNW 5.8 mph - N/A   Overcast
12:53 PM 55.0°F 50.0°F 83% 30.09 in 10.0 miles North 5.8 mph - N/A   Overcast
1:34 PM 55.4°F 48.2°F 77% 30.09 in 10.0 miles NNE 3.5 mph - N/A   Overcast
1:53 PM 55.0°F 46.9°F 74% 30.10 in 10.0 miles North 9.2 mph - N/A   Overcast
2:53 PM 55.0°F 45.0°F 69% 30.11 in 10.0 miles North 6.9 mph - N/A   Overcast
3:53 PM 53.1°F 42.1°F 66% 30.12 in 10.0 miles North 6.9 mph - N/A   Overcast
5:53 PM 51.1°F 37.9°F 61% 30.15 in 10.0 miles Calm Calm - N/A   Overcast
6:53 PM 51.1°F 37.9°F 61% 30.20 in 10.0 miles North 6.9 mph - N/A   Overcast
7:53 PM 48.9°F 35.1°F 59% 30.23 in 10.0 miles North 10.4 mph - N/A   Overcast
8:53 PM 46.9°F 33.1°F 59% 30.23 in 10.0 miles North 6.9 mph - 0.00 in   Overcast
9:53 PM 45.0°F 33.1°F 63% 30.25 in 10.0 miles NNE 9.2 mph - 0.02 in Rain Light Rain
10:53 PM 41.0°F 36.0°F 82% 30.27 in 7.0 miles NNE 6.9 mph - 0.04 in Rain Light Rain
11:53 PM 39.0°F 34.0°F 82% 30.27 in 10.0 miles NNE 8.1 mph - 0.03 in Rain Light Rain
Astronomy
Sunrise:07:20 AM (EST) Moon Rise:08:52 AM (EST)1/14
Sunset:04:56 PM (EST) Moon Set:08:40 PM (EST)1/14
Moon Phase
Jan. 14 Jan. 18 Jan. 26 Feb. 03 Feb. 10

Copyright © 2014 The Weather Underground, Inc.